| time (UTC) | temp F | wind direction | speed MPH | gust MPH | rain 1hr in | rain 24hr in | rain mn in | humidity % | barometer mb |
| 20260505092556 | 50 | 0 | 0.0 | 0.0 | 0.00 | 0.00 | 0.00 | 80 | 1014.2 |
| 20260505092054 | 51 | 0 | 0.0 | 0.0 | 0.00 | 0.00 | 0.00 | 79 | 1014.2 |
| 20260505091552 | 51 | 0 | 0.0 | 0.0 | 0.00 | 0.00 | 0.00 | 78 | 1014.3 |
| 20260505091057 | 52 | 0 | 0.0 | 0.0 | 0.00 | 0.00 | 0.00 | 77 | 1014.3 |
| 20260505090554 | 52 | 0 | 0.0 | 0.0 | 0.00 | 0.00 | 0.00 | 76 | 1014.3 |
| 20260505090104 | 53 | 0 | 0.0 | 0.0 | 0.00 | 0.00 | 0.00 | 76 | 1014.3 |
| 20260505085550 | 53 | 0 | 0.0 | 0.0 | 0.00 | 0.00 | 0.00 | 76 | 1014.4 |
| 20260505085053 | 53 | 0 | 0.0 | 0.0 | 0.00 | 0.00 | 0.00 | 77 | 1014.3 |
| 20260505084554 | 52 | 0 | 0.0 | 0.0 | 0.00 | 0.00 | 0.00 | 77 | 1014.3 |
| 20260505084053 | 52 | 0 | 0.0 | 0.0 | 0.00 | 0.00 | 0.00 | 77 | 1014.5 |
| 20260505083553 | 51 | 0 | 0.0 | 0.0 | 0.00 | 0.00 | 0.00 | 79 | 1014.3 |
| 20260505083100 | 52 | 0 | 0.0 | 0.0 | 0.00 | 0.00 | 0.00 | 78 | 1014.3 |
| 20260505082553 | 52 | 0 | 0.0 | 0.0 | 0.00 | 0.00 | 0.00 | 77 | 1014.4 |
| 20260505082054 | 52 | 0 | 0.0 | 0.0 | 0.00 | 0.00 | 0.00 | 77 | 1014.4 |
| 20260505081557 | 52 | 0 | 0.0 | 0.0 | 0.00 | 0.00 | 0.00 | 76 | 1014.4 |
| 20260505081056 | 53 | 0 | 0.0 | 0.0 | 0.00 | 0.00 | 0.00 | 77 | 1014.3 |
| 20260505080556 | 53 | 0 | 0.0 | 0.0 | 0.00 | 0.00 | 0.00 | 75 | 1014.4 |
| 20260505080057 | 53 | 0 | 0.0 | 0.0 | 0.00 | 0.00 | 0.00 | 75 | 1014.4 |
| 20260505075553 | 53 | 0 | 0.0 | 0.0 | 0.00 | 0.00 | 0.00 | 73 | 1014.6 |
| 20260505075053 | 54 | 0 | 0.0 | 0.0 | 0.00 | 0.00 | 0.00 | 72 | 1014.4 |
| 20260505074555 | 54 | 0 | 0.0 | 0.0 | 0.00 | 0.00 | 0.00 | 72 | 1014.5 |
| 20260505074053 | 54 | 0 | 0.0 | 0.0 | 0.00 | 0.00 | 0.00 | 73 | 1014.5 |
| 20260505073554 | 55 | 0 | 0.0 | 0.0 | 0.00 | 0.00 | 0.00 | 72 | 1014.4 |
| 20260505073057 | 55 | 0 | 0.0 | 0.0 | 0.00 | 0.00 | 0.00 | 72 | 1014.4 |
| 20260505072556 | 55 | 0 | 0.0 | 0.0 | 0.00 | 0.00 | 0.00 | 70 | 1014.5 |
| 20260505072050 | 55 | 0 | 0.0 | 0.0 | 0.00 | 0.00 | 0.00 | 70 | 1014.5 |
| 20260505071555 | 55 | 0 | 0.0 | 0.0 | 0.00 | 0.00 | 0.00 | 69 | 1014.3 |
| 20260505071054 | 55 | 0 | 0.0 | 0.0 | 0.00 | 0.00 | 0.00 | 69 | 1014.4 |
| 20260505070554 | 55 | 0 | 0.0 | 0.0 | 0.00 | 0.00 | 0.00 | 70 | 1014.5 |
| 20260505070055 | 55 | 0 | 0.0 | 0.0 | 0.00 | 0.00 | 0.00 | 70 | 1014.3 |
| 20260505065554 | 55 | 0 | 0.0 | 0.0 | 0.00 | 0.00 | 0.00 | 70 | 1014.3 |
| 20260505065054 | 55 | 0 | 0.0 | 0.0 | 0.00 | 0.00 | 0.00 | 70 | 1014.5 |
| 20260505064557 | 55 | 0 | 0.0 | 0.0 | 0.00 | 0.00 | 0.00 | 70 | 1014.4 |
| 20260505064054 | 55 | 0 | 0.0 | 0.0 | 0.00 | 0.00 | 0.00 | 69 | 1014.3 |
| 20260505063556 | 55 | 0 | 0.0 | 0.0 | 0.00 | 0.00 | 0.00 | 69 | 1014.5 |
| 20260505063056 | 55 | 0 | 0.0 | 0.0 | 0.00 | 0.00 | 0.00 | 69 | 1014.2 |
| 20260505062553 | 56 | 0 | 0.0 | 0.0 | 0.00 | 0.00 | 0.00 | 68 | 1014.4 |
| 20260505062053 | 56 | 0 | 0.0 | 0.0 | 0.00 | 0.00 | 0.00 | 69 | 1014.4 |
| 20260505061555 | 56 | 0 | 0.0 | 0.0 | 0.00 | 0.00 | 0.00 | 69 | 1014.6 |
| 20260505061050 | 56 | 0 | 0.0 | 0.0 | 0.00 | 0.00 | 0.00 | 69 | 1014.5 |
| 20260505060554 | 56 | 0 | 0.0 | 0.0 | 0.00 | 0.00 | 0.00 | 67 | 1014.6 |
| 20260505060055 | 56 | 0 | 0.0 | 0.0 | 0.00 | 0.00 | 0.00 | 68 | 1014.5 |
| 20260505055554 | 56 | 0 | 0.0 | 0.0 | 0.00 | 0.00 | 0.00 | 68 | 1014.5 |
| 20260505055054 | 56 | 0 | 0.0 | 2.0 | 0.00 | 0.00 | 0.00 | 67 | 1014.6 |
| 20260505054553 | 56 | 0 | 0.0 | 2.0 | 0.00 | 0.00 | 0.00 | 67 | 1014.6 |
| 20260505054054 | 56 | 150 | 0.0 | 2.0 | 0.00 | 0.00 | 0.00 | 67 | 1014.7 |
| 20260505053554 | 56 | 147 | 1.0 | 2.0 | 0.00 | 0.00 | 0.00 | 68 | 1014.6 |
| 20260505053102 | 56 | 81 | 0.0 | 2.0 | 0.00 | 0.00 | 0.00 | 68 | 1014.5 |
| 20260505052555 | 56 | 0 | 0.0 | 1.0 | 0.00 | 0.00 | 0.00 | 69 | 1014.7 |
| 20260505052053 | 56 | 0 | 0.0 | 1.0 | 0.00 | 0.00 | 0.00 | 70 | 1014.9 |
| 20260505051552 | 56 | 0 | 0.0 | 1.0 | 0.00 | 0.00 | 0.00 | 72 | 1014.8 |
| 20260505051053 | 56 | 0 | 0.0 | 1.0 | 0.00 | 0.00 | 0.00 | 73 | 1014.7 |
| 20260505050553 | 56 | 81 | 0.0 | 1.0 | 0.00 | 0.00 | 0.00 | 73 | 1014.6 |
| 20260505041551 | 57 | 0 | 0.0 | 0.0 | 0.00 | 0.00 | 0.00 | 72 | 1014.5 |
| 20260505041053 | 57 | 0 | 0.0 | 0.0 | 0.00 | 0.00 | 0.00 | 72 | 1014.4 |
| 20260505040555 | 57 | 0 | 0.0 | 0.0 | 0.00 | 0.00 | 0.00 | 71 | 1014.6 |
| 20260505040056 | 57 | 0 | 0.0 | 0.0 | 0.00 | 0.00 | 0.00 | 71 | 1014.4 |
| 20260505035555 | 57 | 0 | 0.0 | 0.0 | 0.00 | 0.00 | 0.00 | 70 | 1014.4 |
| 20260505035053 | 57 | 0 | 0.0 | 0.0 | 0.00 | 0.00 | 0.00 | 70 | 1014.4 |
| 20260505034555 | 58 | 0 | 0.0 | 0.0 | 0.00 | 0.00 | 0.00 | 70 | 1014.5 |
| 20260505034054 | 58 | 0 | 0.0 | 0.0 | 0.00 | 0.00 | 0.00 | 69 | 1014.6 |
| 20260505033553 | 58 | 0 | 0.0 | 0.0 | 0.00 | 0.00 | 0.00 | 69 | 1014.5 |
| 20260505033111 | 58 | 0 | 0.0 | 0.0 | 0.00 | 0.00 | 0.00 | 69 | 1014.7 |
| 20260505032553 | 58 | 0 | 0.0 | 0.0 | 0.00 | 0.00 | 0.00 | 68 | 1014.7 |
| 20260505032053 | 58 | 0 | 0.0 | 0.0 | 0.00 | 0.00 | 0.00 | 68 | 1014.7 |
| 20260505031553 | 58 | 0 | 0.0 | 0.0 | 0.00 | 0.00 | 0.00 | 68 | 1014.8 |
| 20260505031056 | 58 | 0 | 0.0 | 0.0 | 0.00 | 0.00 | 0.00 | 68 | 1014.7 |
| 20260505030555 | 58 | 0 | 0.0 | 0.0 | 0.00 | 0.00 | 0.00 | 67 | 1014.7 |
| 20260505030052 | 58 | 0 | 0.0 | 0.0 | 0.00 | 0.00 | 0.00 | 67 | 1014.8 |
| 20260505025554 | 59 | 0 | 0.0 | 0.0 | 0.00 | 0.00 | 0.00 | 67 | 1014.6 |
| 20260505025053 | 59 | 0 | 0.0 | 0.0 | 0.00 | 0.00 | 0.00 | 68 | 1014.6 |
| 20260505024600 | 59 | 0 | 0.0 | 0.0 | 0.00 | 0.00 | 0.00 | 68 | 1014.7 |
| 20260505024053 | 59 | 0 | 0.0 | 0.0 | 0.00 | 0.00 | 0.00 | 67 | 1014.7 |
| 20260505023553 | 59 | 0 | 0.0 | 0.0 | 0.00 | 0.00 | 0.00 | 67 | 1014.6 |
| 20260505023105 | 59 | 0 | 0.0 | 0.0 | 0.00 | 0.00 | 0.00 | 67 | 1014.6 |
| 20260505022553 | 59 | 0 | 0.0 | 0.0 | 0.00 | 0.00 | 0.00 | 66 | 1014.6 |
| 20260505022057 | 60 | 0 | 0.0 | 0.0 | 0.00 | 0.00 | 0.00 | 67 | 1014.6 |
| 20260505021555 | 60 | 0 | 0.0 | 0.0 | 0.00 | 0.00 | 0.00 | 66 | 1014.4 |
| 20260505021053 | 60 | 0 | 0.0 | 0.0 | 0.00 | 0.00 | 0.00 | 65 | 1014.5 |
| 20260505020553 | 60 | 0 | 0.0 | 0.0 | 0.00 | 0.00 | 0.00 | 65 | 1014.4 |
| 20260505020055 | 60 | 0 | 0.0 | 0.0 | 0.00 | 0.00 | 0.00 | 65 | 1014.5 |
| 20260505015555 | 61 | 0 | 0.0 | 0.0 | 0.00 | 0.00 | 0.00 | 66 | 1014.4 |
| 20260505015053 | 61 | 0 | 0.0 | 0.0 | 0.00 | 0.00 | 0.00 | 65 | 1014.3 |
| 20260505014554 | 61 | 0 | 0.0 | 0.0 | 0.00 | 0.00 | 0.00 | 65 | 1014.3 |
| 20260505014052 | 61 | 0 | 0.0 | 0.0 | 0.00 | 0.00 | 0.00 | 64 | 1014.3 |
| 20260505013553 | 61 | 0 | 0.0 | 0.0 | 0.00 | 0.00 | 0.00 | 64 | 1014.2 |
| 20260505013054 | 62 | 0 | 0.0 | 0.0 | 0.00 | 0.00 | 0.00 | 64 | 1014.3 |
| 20260505012553 | 62 | 0 | 0.0 | 0.0 | 0.00 | 0.00 | 0.00 | 65 | 1014.1 |
| 20260505012053 | 62 | 0 | 0.0 | 0.0 | 0.00 | 0.00 | 0.00 | 65 | 1014.1 |
| 20260505011600 | 62 | 0 | 0.0 | 0.0 | 0.00 | 0.00 | 0.00 | 65 | 1014.0 |
| 20260505011054 | 63 | 0 | 0.0 | 0.0 | 0.00 | 0.00 | 0.00 | 64 | 1014.1 |
| 20260505010553 | 63 | 0 | 0.0 | 0.0 | 0.00 | 0.00 | 0.00 | 65 | 1014.0 |
| 20260505005553 | 64 | 0 | 0.0 | 0.0 | 0.00 | 0.00 | 0.00 | 62 | 1014.0 |
| 20260505005053 | 64 | 0 | 0.0 | 0.0 | 0.00 | 0.00 | 0.00 | 62 | 1014.0 |
| 20260505004555 | 65 | 0 | 0.0 | 1.0 | 0.00 | 0.00 | 0.00 | 61 | 1014.0 |
| 20260505004055 | 65 | 0 | 0.0 | 1.0 | 0.00 | 0.00 | 0.00 | 60 | 1013.9 |
| 20260505003554 | 66 | 0 | 0.0 | 1.0 | 0.00 | 0.00 | 0.00 | 59 | 1013.8 |
| 20260505003102 | 66 | 0 | 0.0 | 1.0 | 0.00 | 0.00 | 0.00 | 58 | 1013.9 |
| 20260505002552 | 67 | 0 | 0.0 | 1.0 | 0.00 | 0.00 | 0.00 | 57 | 1013.8 |
| 20260505002050 | 67 | 0 | 0.0 | 2.0 | 0.00 | 0.00 | 0.00 | 55 | 1013.8 |
| 20260505001554 | 68 | 0 | 0.0 | 2.0 | 0.00 | 0.00 | 0.00 | 55 | 1013.8 |
| 20260505001056 | 68 | 0 | 0.0 | 2.0 | 0.00 | 0.00 | 0.00 | 54 | 1013.8 |
| 20260505000556 | 69 | 0 | 0.0 | 4.0 | 0.00 | 0.00 | 0.00 | 53 | 1013.7 |
| 20260505000059 | 69 | 0 | 0.0 | 4.0 | 0.00 | 0.00 | 0.00 | 52 | 1013.7 |
| 20260504235554 | 69 | 0 | 1.0 | 4.0 | 0.00 | 0.00 | 0.00 | 51 | 1013.7 |
| 20260504235053 | 70 | 40 | 0.0 | 2.0 | 0.00 | 0.00 | 0.00 | 51 | 1013.6 |
| 20260504234616 | 70 | 0 | 0.0 | 5.0 | 0.00 | 0.00 | 0.00 | 51 | 1013.7 |
| 20260504234054 | 70 | 0 | 0.0 | 5.0 | 0.00 | 0.00 | 0.00 | 50 | 1013.6 |
| 20260504233553 | 70 | 34 | 0.0 | 4.0 | 0.00 | 0.00 | 0.00 | 49 | 1013.6 |
| 20260504233058 | 70 | 19 | 0.0 | 3.0 | 0.00 | 0.00 | 0.00 | 51 | 1013.5 |
| 20260504232553 | 70 | 0 | 1.0 | 3.0 | 0.00 | 0.00 | 0.00 | 49 | 1013.6 |
| 20260504232052 | 71 | 0 | 0.0 | 2.0 | 0.00 | 0.00 | 0.00 | 49 | 1013.5 |
| 20260504231606 | 71 | 0 | 0.0 | 4.0 | 0.00 | 0.00 | 0.00 | 47 | 1013.2 |
| 20260504231054 | 71 | 0 | 0.0 | 4.0 | 0.00 | 0.00 | 0.00 | 47 | 1013.4 |
| 20260504230557 | 71 | 0 | 0.0 | 4.0 | 0.00 | 0.00 | 0.00 | 46 | 1013.4 |
| 20260504230052 | 71 | 329 | 1.0 | 4.0 | 0.00 | 0.00 | 0.00 | 45 | 1013.3 |
| 20260504225554 | 71 | 333 | 1.0 | 4.0 | 0.00 | 0.00 | 0.00 | 44 | 1013.3 |
| 20260504225053 | 71 | 0 | 1.0 | 3.0 | 0.00 | 0.00 | 0.00 | 43 | 1013.3 |
| 20260504224600 | 72 | 352 | 0.0 | 6.0 | 0.00 | 0.00 | 0.00 | 43 | 1013.2 |
| 20260504224053 | 72 | 61 | 1.0 | 6.0 | 0.00 | 0.00 | 0.00 | 42 | 1013.5 |
| 20260504223553 | 72 | 309 | 1.0 | 6.0 | 0.00 | 0.00 | 0.00 | 41 | 1013.5 |
| 20260504223052 | 72 | 0 | 2.0 | 6.0 | 0.00 | 0.00 | 0.00 | 42 | 1013.5 |
| 20260504222553 | 72 | 0 | 0.0 | 6.0 | 0.00 | 0.00 | 0.00 | 46 | 1013.4 |
| 20260504222053 | 72 | 13 | 0.0 | 5.0 | 0.00 | 0.00 | 0.00 | 46 | 1013.6 |
| 20260504221603 | 72 | 5 | 1.0 | 4.0 | 0.00 | 0.00 | 0.00 | 46 | 1013.5 |
| 20260504221053 | 73 | 329 | 1.0 | 3.0 | 0.00 | 0.00 | 0.00 | 45 | 1013.4 |
| 20260504220553 | 73 | 0 | 0.0 | 3.0 | 0.00 | 0.00 | 0.00 | 46 | 1013.4 |
| 20260504220057 | 73 | 0 | 0.0 | 2.0 | 0.00 | 0.00 | 0.00 | 45 | 1013.4 |
| 20260504215553 | 73 | 0 | 0.0 | 3.0 | 0.00 | 0.00 | 0.00 | 44 | 1013.5 |
| 20260504215053 | 73 | 320 | 1.0 | 3.0 | 0.00 | 0.00 | 0.00 | 44 | 1013.5 |
| 20260504214555 | 73 | 0 | 0.0 | 4.0 | 0.00 | 0.00 | 0.00 | 42 | 1013.4 |
| 20260504214053 | 73 | 0 | 1.0 | 4.0 | 0.00 | 0.00 | 0.00 | 42 | 1013.4 |
| 20260504213553 | 73 | 352 | 0.0 | 2.0 | 0.00 | 0.00 | 0.00 | 41 | 1013.4 |
| 20260504213102 | 73 | 339 | 0.0 | 2.0 | 0.00 | 0.00 | 0.00 | 42 | 1013.2 |
| 20260504212554 | 73 | 0 | 0.0 | 3.0 | 0.00 | 0.00 | 0.00 | 41 | 1013.3 |
| 20260504212056 | 73 | 0 | 0.0 | 3.0 | 0.00 | 0.00 | 0.00 | 41 | 1013.2 |
| 20260504211557 | 73 | 311 | 0.0 | 3.0 | 0.00 | 0.00 | 0.00 | 40 | 1013.0 |
| 20260504211053 | 73 | 62 | 0.0 | 3.0 | 0.00 | 0.00 | 0.00 | 41 | 1013.0 |
| 20260504210553 | 73 | 309 | 0.0 | 2.0 | 0.00 | 0.00 | 0.00 | 42 | 1013.2 |
| 20260504210104 | 73 | 0 | 0.0 | 2.0 | 0.00 | 0.00 | 0.00 | 43 | 1013.3 |
| 20260504205556 | 73 | 308 | 0.0 | 2.0 | 0.00 | 0.00 | 0.00 | 41 | 1013.3 |
| 20260504205056 | 73 | 0 | 1.0 | 4.0 | 0.00 | 0.00 | 0.00 | 39 | 1013.2 |
| 20260504204635 | 74 | 329 | 1.0 | 4.0 | 0.00 | 0.00 | 0.00 | 42 | 1013.4 |
| 20260504204049 | 74 | 302 | 1.0 | 4.0 | 0.00 | 0.00 | 0.00 | 42 | 1013.4 |
| 20260504203554 | 74 | 0 | 0.0 | 3.0 | 0.00 | 0.00 | 0.00 | 47 | 1013.4 |
| 20260504203057 | 74 | 13 | 1.0 | 3.0 | 0.00 | 0.00 | 0.00 | 45 | 1013.5 |
| 20260504202553 | 74 | 244 | 0.0 | 2.0 | 0.00 | 0.00 | 0.00 | 49 | 1013.4 |
| 20260504202054 | 74 | 0 | 0.0 | 2.0 | 0.00 | 0.00 | 0.00 | 48 | 1013.4 |
| 20260504201556 | 74 | 0 | 0.0 | 2.0 | 0.00 | 0.00 | 0.00 | 47 | 1013.5 |
| 20260504201053 | 74 | 339 | 0.0 | 4.0 | 0.00 | 0.00 | 0.00 | 47 | 1013.5 |
| 20260504200550 | 74 | 338 | 0.0 | 4.0 | 0.00 | 0.00 | 0.00 | 46 | 1013.6 |
| 20260504200059 | 74 | 305 | 1.0 | 4.0 | 0.00 | 0.00 | 0.00 | 45 | 1013.7 |
| 20260504195551 | 74 | 0 | 0.0 | 3.0 | 0.00 | 0.00 | 0.00 | 44 | 1013.7 |
| 20260504195053 | 74 | 28 | 0.0 | 3.0 | 0.00 | 0.00 | 0.00 | 46 | 1013.8 |
| 20260504194557 | 74 | 31 | 1.0 | 5.0 | 0.00 | 0.00 | 0.00 | 45 | 1013.9 |
| 20260504194051 | 74 | 0 | 0.0 | 5.0 | 0.00 | 0.00 | 0.00 | 45 | 1013.9 |
| 20260504193556 | 74 | 336 | 1.0 | 5.0 | 0.00 | 0.00 | 0.00 | 44 | 1014.0 |
| 20260504193052 | 75 | 15 | 0.0 | 3.0 | 0.00 | 0.00 | 0.00 | 47 | 1013.9 |
| 20260504192550 | 74 | 13 | 1.0 | 3.0 | 0.00 | 0.00 | 0.00 | 44 | 1014.2 |
| 20260504192049 | 75 | 298 | 1.0 | 4.0 | 0.00 | 0.00 | 0.00 | 44 | 1014.2 |
| 20260504191557 | 75 | 112 | 1.0 | 4.0 | 0.00 | 0.00 | 0.00 | 46 | 1014.3 |
| 20260504191053 | 75 | 119 | 0.0 | 2.0 | 0.00 | 0.00 | 0.00 | 45 | 1014.3 |
| 20260504190552 | 75 | 5 | 0.0 | 4.0 | 0.00 | 0.00 | 0.00 | 43 | 1014.3 |
| 20260504190059 | 75 | 0 | 0.0 | 4.0 | 0.00 | 0.00 | 0.00 | 43 | 1014.4 |
| 20260504185551 | 75 | 317 | 1.0 | 4.0 | 0.00 | 0.00 | 0.00 | 39 | 1014.6 |
| 20260504185051 | 74 | 145 | 0.0 | 4.0 | 0.00 | 0.00 | 0.00 | 42 | 1014.5 |
| 20260504184604 | 74 | 98 | 1.0 | 7.0 | 0.00 | 0.00 | 0.00 | 43 | 1014.8 |
| 20260504184052 | 74 | 305 | 0.0 | 8.0 | 0.00 | 0.00 | 0.00 | 43 | 1014.7 |
| 20260504183552 | 73 | 84 | 3.0 | 8.0 | 0.00 | 0.00 | 0.00 | 41 | 1014.7 |
| 20260504183100 | 73 | 51 | 1.0 | 8.0 | 0.00 | 0.00 | 0.00 | 45 | 1014.9 |
| 20260504182554 | 73 | 106 | 2.0 | 8.0 | 0.00 | 0.00 | 0.00 | 44 | 1015.1 |
| 20260504182051 | 73 | 155 | 2.0 | 8.0 | 0.00 | 0.00 | 0.00 | 44 | 1015.0 |
| 20260504181555 | 73 | 314 | 1.0 | 6.0 | 0.00 | 0.00 | 0.00 | 42 | 1015.2 |
| 20260504181050 | 73 | 79 | 2.0 | 6.0 | 0.00 | 0.00 | 0.00 | 43 | 1015.2 |
| 20260504180553 | 74 | 15 | 2.0 | 5.0 | 0.00 | 0.00 | 0.00 | 43 | 1015.3 |
| 20260504180052 | 73 | 84 | 1.0 | 5.0 | 0.00 | 0.00 | 0.00 | 44 | 1015.4 |
| 20260504175553 | 74 | 150 | 1.0 | 4.0 | 0.00 | 0.00 | 0.00 | 44 | 1015.3 |
| 20260504175053 | 73 | 296 | 0.0 | 2.0 | 0.00 | 0.00 | 0.00 | 45 | 1015.4 |
| 20260504174556 | 73 | 308 | 0.0 | 4.0 | 0.00 | 0.00 | 0.00 | 43 | 1015.4 |
| 20260504174052 | 73 | 261 | 1.0 | 5.0 | 0.00 | 0.00 | 0.00 | 42 | 1015.5 |
| 20260504173549 | 72 | 293 | 1.0 | 5.0 | 0.00 | 0.00 | 0.00 | 43 | 1015.5 |
| 20260504173056 | 73 | 293 | 1.0 | 4.0 | 0.00 | 0.00 | 0.00 | 43 | 1015.7 |
| 20260504172552 | 73 | 292 | 0.0 | 4.0 | 0.00 | 0.00 | 0.00 | 49 | 1015.8 |
| 20260504172049 | 72 | 294 | 1.0 | 4.0 | 0.00 | 0.00 | 0.00 | 46 | 1015.7 |
| 20260504171557 | 72 | 182 | 0.0 | 3.0 | 0.00 | 0.00 | 0.00 | 47 | 1015.9 |
| 20260504171052 | 72 | 331 | 1.0 | 3.0 | 0.00 | 0.00 | 0.00 | 47 | 1015.9 |
| 20260504170552 | 72 | 304 | 0.0 | 3.0 | 0.00 | 0.00 | 0.00 | 48 | 1015.8 |
| 20260504151052 | 64 | 147 | 1.0 | 4.0 | 0.00 | 0.00 | 0.00 | 55 | 1017.5 |
| 20260504150555 | 64 | 184 | 1.0 | 3.0 | 0.00 | 0.00 | 0.00 | 56 | 1017.6 |
| 20260504141049 | 58 | 0 | 0.0 | 1.0 | 0.00 | 0.00 | 0.00 | 75 | 1017.9 |
| 20260504140552 | 57 | 0 | 0.0 | 1.0 | 0.00 | 0.00 | 0.00 | 76 | 1017.9 |
| 20260504130557 | 48 | 0 | 0.0 | 0.0 | 0.00 | 0.00 | 0.00 | 92 | 1017.9 |
| 20260504110552 | 39 | 0 | 0.0 | 0.0 | 0.00 | 0.00 | 0.00 | 91 | 1017.2 |
| 20260504100552 | 40 | 0 | 0.0 | 0.0 | 0.00 | 0.00 | 0.00 | 90 | 1017.2 |